Location: Bratislava
(0.0000°N, 17.1167°E)
Time: 06:01:40
(UTC+01:00)

CZ-2D R/B - Pass Details

Date: 24 January 2021
Orbit: 521 x 537 km, 97.4° (Epoch: 04 March)

Event Time Altitude Azimuth Distance (km) Brightness Sun altitude
Rises 18:29:33 0° 168° (SSE) 2,687 6.9 -6.1°
Reaches altitude 10° 18:31:40 10° 167° (SSE) 1,793 6.0 -6.6°
Maximum altitude 18:35:33 83° 81° (E) 543 3.2 -7.5°
Drops below altitude 10° 18:39:24 10° 351° (N) 1,779 5.8 -8.4°
Sets 18:41:29 0° 350° (N) 2,664 6.7 -8.9°
